Location: Follega
(52.8850°N, 5.7362°E)
Time: 04:35:24
(UTC+00:00)

Cosmos 2297 Rocket - Pass Details

Date: 02 October 2020
Orbit: 838 x 845 km, 71.0° (Epoch: 26 October)

Event Time Altitude Azimuth Distance (km) Brightness Sun altitude
Rises 20:49:11 0° 327° (NNW) 3,416 6.4 -31.5°
Reaches altitude 10° 20:52:02 10° 340° (NNW) 2,479 5.3 -31.8°
Enters shadow 20:56:06 26° 25° (NNE) 1,610 3.7 -32.2°
